QPF
0.00 0.00 0.00 0.00 0.00 0.00 0.00 0.00 0.00 0.00 0.00 0.00 0.00 0.00 0.00 0.00 0.00 0.00 0.01 0.04 0.05 0.06 0.08 0.08 0.06 0.07 0.08 0.08 0.07 0.07 0.06 0.07 0.08 0.12 0.11 0.16 0.15 0.12 0.10 0.10 0.13 0.18 0.14
0.00 0.00 0.00 0.00 0.00 0.00 0.00 0.00 0.00 0.00 0.00 0.00 0.00 0.00 0.00 0.00 0.00 0.00 0.01 0.03 0.04 0.04 0.06 0.09 0.07 0.07 0.07 0.09 0.08 0.09 0.08 0.08 0.07 0.10 0.18 0.21 0.19 0.16 0.11 0.08 0.16 0.17 0.10
0.00 0.00 0.00 0.00 0.00 0.00 0.00 0.00 0.00 0.00 0.00 0.00 0.00 0.00 0.00 0.00 0.01 0.01 0.01 0.02 0.02 0.03 0.04 0.07 0.08 0.08 0.08 0.10 0.10 0.11 0.10 0.10 0.07 0.07 0.21 0.27 0.19 0.16 0.12 0.06 0.09 0.10 0.07
0.00 0.00 0.00 0.00 0.00 0.00 0.00 0.00 0.00 0.00 0.00 0.00 0.00 0.01 0.01 0.00 0.01 0.01 0.01 0.01 0.01 0.01 0.02 0.05 0.07 0.08 0.09 0.10 0.10 0.11 0.11 0.11 0.08 0.07 0.18 0.27 0.19 0.15 0.11 0.07 0.07 0.08 0.07
0.00 0.00 0.00 0.00 0.00 0.00 0.00 0.00 0.00 0.00 0.00 0.00 0.01 0.01 0.02 0.01 0.01 0.01 0.00 0.01 0.01 0.01 0.01 0.02 0.04 0.05 0.08 0.11 0.11 0.11 0.12 0.13 0.11 0.08 0.09 0.18 0.15 0.12 0.09 0.08 0.07 0.06 0.06
0.00 0.00 0.00 0.00 0.00 0.00 0.00 0.00 0.00 0.00 0.00 0.00 0.01 0.01 0.02 0.02 0.02 0.02 0.02 0.01 0.01 0.01 0.01 0.01 0.01 0.02 0.06 0.09 0.12 0.13 0.13 0.13 0.12 0.09 0.08 0.09 0.10 0.10 0.08 0.07 0.06 0.05 0.06
0.00 0.00 0.00 0.00 0.00 0.00 0.00 0.00 0.00 0.00 0.00 0.00 0.00 0.01 0.01 0.01 0.01 0.02 0.02 0.02 0.02 0.02 0.02 0.02 0.01 0.01 0.03 0.06 0.09 0.12 0.11 0.10 0.11 0.10 0.09 0.09 0.09 0.10 0.09 0.09 0.07 0.05 0.06
0.00 0.00 0.00 0.00 0.00 0.00 0.00 0.00 0.00 0.00 0.00 0.00 0.00 0.00 0.00 0.01 0.01 0.01 0.01 0.01 0.02 0.02 0.03 0.03 0.01 0.02 0.03 0.04 0.05 0.07 0.07 0.08 0.10 0.09 0.08 0.08 0.09 0.12 0.10 0.09 0.06 0.05 0.05
0.00 0.00 0.00 0.00 0.00 0.00 0.00 0.00 0.00 0.00 0.00 0.00 0.00 0.01 0.01 0.00 0.00 0.00 0.00 0.00 0.02 0.03 0.02 0.04 0.03 0.03 0.03 0.03 0.04 0.05 0.04 0.05 0.09 0.09 0.09 0.08 0.09 0.12 0.10 0.10 0.07 0.05 0.04
0.00 0.00 0.00 0.00 0.00 0.00 0.00 0.00 0.00 0.00 0.00 0.01 0.01 0.01 0.00 0.00 0.00 0.00 0.00 0.01 0.02 0.02 0.02 0.03 0.05 0.05 0.04 0.04 0.04 0.04 0.03 0.04 0.06 0.11 0.11 0.08 0.08 0.11 0.11 0.12 0.10 0.07 0.05
0.00 0.00 0.00 0.00 0.00 0.00 0.00 0.00 0.00 0.00 0.00 0.01 0.01 0.01 0.00 0.00 0.00 0.00 0.00 0.02 0.02 0.02 0.03 0.04 0.06 0.07 0.05 0.06 0.06 0.04 0.04 0.04 0.05 0.08 0.13 0.10 0.09 0.10 0.10 0.11 0.11 0.10 0.07
0.00 0.00 0.00 0.00 0.00 0.00 0.00 0.00 0.00 0.00 0.00 0.01 0.01 0.00 0.00 0.00 0.00 0.00 0.00 0.01 0.02 0.03 0.03 0.04 0.05 0.05 0.08 0.08 0.06 0.05 0.04 0.04 0.04 0.04 0.08 0.12 0.11 0.10 0.10 0.11 0.13 0.12 0.11
0.00 0.00 0.00 0.00 0.00 0.00 0.00 0.00 0.00 0.00 0.00 0.01 0.01 0.01 0.00 0.00 0.00 0.01 0.00 0.00 0.01 0.02 0.01 0.02 0.03 0.03 0.07 0.08 0.08 0.05 0.04 0.04 0.03 0.04 0.03 0.06 0.10 0.11 0.12 0.14 0.15 0.13 0.12
0.00 0.00 0.00 0.00 0.00 0.00 0.00 0.00 0.00 0.00 0.01 0.01 0.01 0.01 0.01 0.00 0.00 0.00 0.00 0.00 0.01 0.01 0.00 0.01 0.02 0.02 0.05 0.09 0.10 0.07 0.03 0.03 0.02 0.02 0.02 0.03 0.05 0.07 0.10 0.12 0.15 0.14 0.14
0.00 0.00 0.00 0.00 0.00 0.00 0.00 0.00 0.00 0.00 0.00 0.00 0.00 0.00 0.01 0.00 0.01 0.01 0.00 0.00 0.00 0.00 0.00 0.00 0.01 0.01 0.02 0.03 0.05 0.08 0.06 0.03 0.02 0.02 0.02 0.02 0.03 0.05 0.10 0.10 0.13 0.14 0.14
0.00 0.00 0.00 0.00 0.00 0.00 0.00 0.00 0.00 0.00 0.00 0.00 0.00 0.00 0.00 0.00 0.00 0.00 0.00 0.00 0.00 0.00 0.00 0.00 0.01 0.01 0.01 0.02 0.02 0.05 0.06 0.04 0.02 0.02 0.02 0.02 0.02 0.03 0.07 0.10 0.11 0.12 0.11
0.00 0.00 0.00 0.00 0.00 0.00 0.00 0.00 0.00 0.00 0.00 0.00 0.00 0.00 0.01 0.00 0.00 0.00 0.00 0.00 0.00 0.00 0.00 0.00 0.00 0.00 0.00 0.01 0.02 0.03 0.04 0.04 0.03 0.03 0.03 0.03 0.03 0.03 0.04 0.09 0.12 0.11 0.12
0.00 0.00 0.00 0.00 0.00 0.00 0.00 0.01 0.01 0.00 0.00 0.01 0.01 0.01 0.01 0.01 0.00 0.00 0.00 0.00 0.00 0.00 0.00 0.00 0.00 0.00 0.00 0.01 0.03 0.04 0.03 0.04 0.04 0.04 0.04 0.04 0.04 0.04 0.04 0.06 0.12 0.12 0.10
0.00 0.00 0.00 0.00 0.00 0.00 0.01 0.02 0.01 0.00 0.00 0.01 0.01 0.01 0.01 0.01 0.00 0.00 0.00 0.00 0.00 0.00 0.00 0.00 0.00 0.00 0.00 0.00 0.01 0.03 0.05 0.05 0.05 0.05 0.05 0.05 0.05 0.05 0.06 0.07 0.09 0.12 0.08
0.00 0.00 0.00 0.00 0.00 0.00 0.01 0.01 0.00 0.00 0.00 0.00 0.00 0.01 0.01 0.00 0.00 0.00 0.00 0.00 0.00 0.00 0.00 0.00 0.00 0.00 0.00 0.00 0.00 0.01 0.02 0.04 0.06 0.05 0.05 0.06 0.07 0.07 0.07 0.09 0.09 0.09 0.07
0.00 0.00 0.00 0.00 0.00 0.00 0.00 0.00 0.00 0.00 0.00 0.00 0.01 0.01 0.01 0.00 0.00 0.00 0.01 0.01 0.01 0.00 0.00 0.00 0.00 0.00 0.00 0.00 0.00 0.00 0.01 0.02 0.03 0.03 0.04 0.04 0.05 0.05 0.05 0.10 0.11 0.09 0.07
0.00 0.00 0.00 0.00 0.00 0.00 0.00 0.00 0.00 0.00 0.00 0.00 0.00 0.00 0.00 0.00 0.00 0.01 0.01 0.01 0.00 0.00 0.00 0.00 0.00 0.00 0.00 0.00 0.00 0.01 0.01 0.02 0.02 0.02 0.02 0.04 0.04 0.04 0.04 0.06 0.12 0.09 0.08
0.00 0.00 0.00 0.00 0.00 0.00 0.00 0.00 0.00 0.00 0.00 0.00 0.00 0.00 0.00 0.01 0.01 0.00 0.01 0.01 0.00 0.00 0.00 0.01 0.00 0.00 0.00 0.00 0.01 0.01 0.01 0.01 0.01 0.02 0.03 0.03 0.04 0.03 0.03 0.04 0.10 0.12 0.09
0.00 0.00 0.00 0.00 0.00 0.00 0.00 0.00 0.00 0.00 0.00 0.00 0.00 0.00 0.00 0.00 0.00 0.00 0.00 0.00 0.00 0.00 0.00 0.00 0.00 0.00 0.00 0.00 0.01 0.01 0.02 0.02 0.02 0.03 0.03 0.04 0.04 0.05 0.05 0.04 0.06 0.10 0.09
0.00 0.00 0.00 0.00 0.00 0.00 0.00 0.00 0.00 0.00 0.00 0.00 0.00 0.00 0.00 0.00 0.00 0.00 0.00 0.00 0.00 0.00 0.00 0.00 0.00 0.01 0.01 0.01 0.01 0.01 0.02 0.02 0.01 0.02 0.03 0.03 0.04 0.05 0.07 0.06 0.06 0.08 0.09
0.00 0.00 0.00 0.00 0.00 0.00 0.00 0.00 0.00 0.00 0.00 0.00 0.00 0.00 0.00 0.00 0.00 0.01 0.01 0.01 0.01 0.01 0.01 0.00 0.00 0.00 0.01 0.01 0.01 0.01 0.02 0.03 0.03 0.02 0.03 0.04 0.04 0.05 0.07 0.07 0.07 0.07 0.09
MSLP
1016.33 1016.19 1015.95 1015.63 1015.26 1014.86 1014.50 1014.19 1013.98 1013.84 1013.77 1013.71 1013.63 1013.50 1013.29 1013.03 1012.74 1012.47 1012.27 1012.18 1012.20 1012.31 1012.44 1012.50 1012.40 1012.07 1011.48 1010.64 1009.64 1008.60 1007.66 1006.99 1006.72 1006.92 1007.58 1008.64 1009.98 1011.46 1012.92 1014.23 1015.31 1016.14 1016.73
1016.57 1016.42 1016.17 1015.84 1015.45 1015.04 1014.66 1014.34 1014.11 1013.98 1013.90 1013.85 1013.78 1013.65 1013.44 1013.16 1012.84 1012.54 1012.31 1012.20 1012.20 1012.29 1012.39 1012.42 1012.27 1011.86 1011.16 1010.18 1009.02 1007.81 1006.72 1005.93 1005.59 1005.77 1006.48 1007.64 1009.14 1010.79 1012.44 1013.92 1015.15 1016.10 1016.77
1016.77 1016.62 1016.38 1016.05 1015.67 1015.26 1014.87 1014.55 1014.32 1014.18 1014.11 1014.07 1014.00 1013.86 1013.65 1013.36 1013.02 1012.69 1012.43 1012.27 1012.23 1012.29 1012.36 1012.36 1012.18 1011.73 1010.98 1009.95 1008.73 1007.46 1006.32 1005.48 1005.11 1005.28 1006.01 1007.22 1008.78 1010.51 1012.25 1013.83 1015.14 1016.14 1016.87
1016.95 1016.80 1016.58 1016.28 1015.91 1015.52 1015.14 1014.82 1014.58 1014.44 1014.36 1014.31 1014.24 1014.11 1013.90 1013.60 1013.25 1012.90 1012.60 1012.40 1012.31 1012.32 1012.35 1012.33 1012.14 1011.71 1010.99 1010.01 1008.84 1007.62 1006.52 1005.71 1005.35 1005.53 1006.25 1007.44 1008.97 1010.68 1012.40 1013.97 1015.28 1016.29 1017.02
1017.11 1016.98 1016.78 1016.50 1016.16 1015.79 1015.43 1015.11 1014.86 1014.70 1014.61 1014.55 1014.48 1014.36 1014.16 1013.87 1013.52 1013.15 1012.83 1012.58 1012.45 1012.40 1012.40 1012.36 1012.20 1011.82 1011.21 1010.35 1009.33 1008.26 1007.29 1006.59 1006.29 1006.47 1007.15 1008.26 1009.69 1011.28 1012.88 1014.34 1015.56 1016.52 1017.21
1017.27 1017.15 1016.98 1016.73 1016.42 1016.08 1015.72 1015.40 1015.15 1014.96 1014.85 1014.78 1014.71 1014.60 1014.42 1014.15 1013.82 1013.46 1013.12 1012.84 1012.66 1012.57 1012.53 1012.49 1012.36 1012.08 1011.61 1010.94 1010.14 1009.29 1008.52 1007.97 1007.76 1007.96 1008.58 1009.56 1010.81 1012.20 1013.59 1014.87 1015.94 1016.78 1017.41
1017.46 1017.34 1017.18 1016.97 1016.69 1016.36 1016.02 1015.70 1015.42 1015.22 1015.09 1015.00 1014.94 1014.84 1014.69 1014.47 1014.17 1013.83 1013.49 1013.19 1012.97 1012.84 1012.77 1012.72 1012.64 1012.47 1012.16 1011.71 1011.15 1010.56 1010.03 1009.66 1009.56 1009.77 1010.31 1011.13 1012.16 1013.30 1014.44 1015.48 1016.36 1017.06 1017.59
1017.66 1017.55 1017.40 1017.21 1016.96 1016.66 1016.33 1016.00 1015.72 1015.49 1015.34 1015.24 1015.18 1015.11 1015.00 1014.82 1014.57 1014.27 1013.95 1013.65 1013.40 1013.23 1013.13 1013.07 1013.03 1012.94 1012.79 1012.55 1012.23 1011.90 1011.60 1011.42 1011.42 1011.64 1012.10 1012.75 1013.55 1014.43 1015.29 1016.08 1016.76 1017.30 1017.74
1017.88 1017.77 1017.64 1017.47 1017.24 1016.97 1016.66 1016.34 1016.05 1015.81 1015.64 1015.53 1015.47 1015.42 1015.35 1015.22 1015.03 1014.78 1014.49 1014.19 1013.93 1013.72 1013.59 1013.52 1013.49 1013.47 1013.43 1013.36 1013.25 1013.13 1013.04 1013.02 1013.12 1013.35 1013.73 1014.23 1014.82 1015.45 1016.06 1016.62 1017.10 1017.51 1017.85
1018.11 1018.00 1017.88 1017.73 1017.54 1017.30 1017.02 1016.72 1016.43 1016.18 1016.01 1015.89 1015.83 1015.80 1015.76 1015.68 1015.54 1015.34 1015.08 1014.80 1014.53 1014.30 1014.13 1014.02 1013.98 1013.99 1014.02 1014.06 1014.10 1014.15 1014.22 1014.32 1014.49 1014.73 1015.05 1015.43 1015.85 1016.28 1016.68 1017.05 1017.38 1017.67 1017.93
1018.31 1018.21 1018.11 1018.00 1017.84 1017.64 1017.40 1017.13 1016.86 1016.62 1016.44 1016.32 1016.26 1016.23 1016.21 1016.16 1016.07 1015.91 1015.68 1015.42 1015.15 1014.90 1014.70 1014.55 1014.48 1014.48 1014.54 1014.63 1014.75 1014.90 1015.06 1015.25 1015.47 1015.72 1016.00 1016.29 1016.59 1016.87 1017.14 1017.37 1017.59 1017.79 1018.01
1018.49 1018.40 1018.32 1018.23 1018.12 1017.97 1017.77 1017.54 1017.30 1017.08 1016.90 1016.78 1016.71 1016.68 1016.66 1016.63 1016.56 1016.44 1016.25 1016.01 1015.75 1015.49 1015.26 1015.08 1014.97 1014.93 1014.96 1015.06 1015.20 1015.38 1015.59 1015.82 1016.06 1016.32 1016.57 1016.81 1017.04 1017.25 1017.43 1017.59 1017.74 1017.90 1018.08
1018.61 1018.53 1018.47 1018.41 1018.34 1018.24 1018.09 1017.92 1017.72 1017.52 1017.35 1017.22 1017.14 1017.10 1017.07 1017.05 1016.99 1016.89 1016.73 1016.52 1016.28 1016.02 1015.78 1015.57 1015.42 1015.34 1015.32 1015.38 1015.50 1015.67 1015.87 1016.10 1016.35 1016.59 1016.83 1017.06 1017.26 1017.43 1017.58 1017.71 1017.84 1017.98 1018.14
1018.67 1018.60 1018.55 1018.51 1018.48 1018.42 1018.33 1018.20 1018.05 1017.89 1017.74 1017.61 1017.51 1017.45 1017.41 1017.38 1017.33 1017.24 1017.12 1016.94 1016.73 1016.49 1016.25 1016.03 1015.85 1015.72 1015.65 1015.66 1015.72 1015.84 1016.00 1016.20 1016.42 1016.66 1016.89 1017.10 1017.30 1017.47 1017.62 1017.75 1017.89 1018.03 1018.18
1018.69 1018.60 1018.55 1018.53 1018.51 1018.49 1018.45 1018.37 1018.27 1018.15 1018.02 1017.90 1017.80 1017.72 1017.66 1017.62 1017.57 1017.50 1017.40 1017.27 1017.09 1016.89 1016.68 1016.46 1016.27 1016.10 1015.99 1015.93 1015.92 1015.98 1016.08 1016.23 1016.41 1016.61 1016.82 1017.03 1017.23 1017.41 1017.57 1017.73 1017.87 1018.02 1018.18
1018.68 1018.58 1018.51 1018.48 1018.47 1018.47 1018.46 1018.43 1018.37 1018.29 1018.19 1018.09 1017.99 1017.91 1017.84 1017.79 1017.75 1017.69 1017.62 1017.53 1017.40 1017.24 1017.06 1016.87 1016.68 1016.50 1016.35 1016.24 1016.17 1016.15 1016.19 1016.27 1016.39 1016.55 1016.73 1016.91 1017.10 1017.29 1017.46 1017.63 1017.79 1017.95 1018.12
1018.69 1018.55 1018.46 1018.41 1018.39 1018.40 1018.41 1018.41 1018.39 1018.35 1018.29 1018.21 1018.12 1018.05 1017.98 1017.93 1017.89 1017.85 1017.81 1017.75 1017.66 1017.55 1017.42 1017.26 1017.09 1016.91 1016.75 1016.60 1016.48 1016.40 1016.37 1016.38 1016.44 1016.53 1016.66 1016.81 1016.97 1017.14 1017.30 1017.47 1017.63 1017.80 1017.97
1018.76 1018.60 1018.47 1018.39 1018.35 1018.35 1018.37 1018.39 1018.40 1018.39 1018.36 1018.31 1018.25 1018.19 1018.13 1018.09 1018.05 1018.02 1017.99 1017.96 1017.91 1017.84 1017.74 1017.62 1017.47 1017.31 1017.14 1016.98 1016.83 1016.71 1016.62 1016.57 1016.56 1016.59 1016.65 1016.74 1016.86 1016.98 1017.12 1017.27 1017.42 1017.59 1017.76
1018.95 1018.75 1018.59 1018.48 1018.42 1018.41 1018.42 1018.44 1018.47 1018.48 1018.48 1018.45 1018.42 1018.37 1018.32 1018.28 1018.25 1018.22 1018.20 1018.18 1018.14 1018.09 1018.02 1017.92 1017.80 1017.66 1017.51 1017.34 1017.19 1017.04 1016.92 1016.82 1016.75 1016.71 1016.71 1016.73 1016.78 1016.85 1016.94 1017.05 1017.18 1017.33 1017.50
1019.27 1019.06 1018.88 1018.75 1018.66 1018.62 1018.62 1018.63 1018.66 1018.68 1018.69 1018.68 1018.66 1018.62 1018.58 1018.54 1018.50 1018.47 1018.43 1018.39 1018.35 1018.30 1018.23 1018.15 1018.04 1017.92 1017.79 1017.65 1017.50 1017.35 1017.21 1017.09 1016.98 1016.89 1016.82 1016.77 1016.75 1016.75 1016.78 1016.84 1016.93 1017.06 1017.22
1019.73 1019.53 1019.35 1019.20 1019.10 1019.03 1019.00 1018.99 1019.00 1019.00 1019.01 1019.00 1018.98 1018.95 1018.91 1018.86 1018.80 1018.74 1018.67 1018.60 1018.53 1018.45 1018.37 1018.28 1018.18 1018.08 1017.97 1017.85 1017.73 1017.60 1017.47 1017.33 1017.20 1017.07 1016.95 1016.84 1016.75 1016.69 1016.65 1016.66 1016.71 1016.81 1016.95
1020.30 1020.13 1019.97 1019.82 1019.70 1019.61 1019.55 1019.50 1019.48 1019.45 1019.44 1019.41 1019.38 1019.34 1019.28 1019.21 1019.13 1019.03 1018.91 1018.79 1018.67 1018.55 1018.43 1018.32 1018.22 1018.12 1018.03 1017.94 1017.85 1017.75 1017.64 1017.52 1017.38 1017.23 1017.07 1016.92 1016.77 1016.65 1016.56 1016.52 1016.53 1016.59 1016.71
1020.93 1020.81 1020.68 1020.55 1020.42 1020.31 1020.21 1020.12 1020.05 1019.98 1019.93 1019.87 1019.82 1019.75 1019.67 1019.57 1019.45 1019.31 1019.15 1018.97 1018.79 1018.61 1018.45 1018.30 1018.18 1018.09 1018.01 1017.94 1017.88 1017.81 1017.73 1017.62 1017.49 1017.33 1017.15 1016.96 1016.78 1016.61 1016.48 1016.40 1016.37 1016.41 1016.50
1021.54 1021.48 1021.39 1021.29 1021.17 1021.03 1020.90 1020.76 1020.64 1020.52 1020.42 1020.33 1020.25 1020.16 1020.05 1019.93 1019.78 1019.60 1019.39 1019.16 1018.92 1018.69 1018.47 1018.29 1018.14 1018.02 1017.95 1017.89 1017.84 1017.79 1017.73 1017.63 1017.50 1017.33 1017.14 1016.93 1016.72 1016.53 1016.38 1016.27 1016.22 1016.24 1016.31
1022.07 1022.07 1022.03 1021.95 1021.83 1021.68 1021.52 1021.34 1021.17 1021.01 1020.87 1020.75 1020.64 1020.53 1020.41 1020.27 1020.10 1019.89 1019.64 1019.37 1019.09 1018.81 1018.55 1018.32 1018.13 1018.00 1017.90 1017.83 1017.78 1017.73 1017.66 1017.56 1017.41 1017.24 1017.03 1016.80 1016.58 1016.37 1016.20 1016.09 1016.03 1016.03 1016.09
1022.46 1022.51 1022.51 1022.45 1022.34 1022.18 1021.99 1021.78 1021.58 1021.39 1021.22 1021.08 1020.96 1020.85 1020.73 1020.59 1020.42 1020.20 1019.94 1019.64 1019.33 1019.02 1018.72 1018.45 1018.23 1018.06 1017.92 1017.82 1017.74 1017.65 1017.55 1017.42 1017.25 1017.04 1016.81 1016.56 1016.32 1016.11 1015.93 1015.81 1015.75 1015.75 1015.81
Thickness
5721 5720 5718 5717 5716 5715 5714 5713 5713 5712 5712 5713 5713 5714 5715 5716 5717 5719 5721 5723 5725 5726 5729 5731 5733 5736 5737 5740 5741 5743 5745 5747 5750 5752 5754 5755 5757 5758 5759 5759 5760 5761 5761
5719 5717 5716 5714 5713 5712 5711 5710 5709 5708 5708 5709 5710 5711 5712 5713 5714 5716 5717 5719 5721 5723 5726 5728 5731 5733 5735 5737 5739 5741 5743 5745 5748 5750 5752 5753 5756 5758 5757 5758 5758 5758 5759
5717 5715 5713 5712 5710 5709 5708 5707 5706 5705 5704 5705 5705 5707 5708 5709 5711 5712 5714 5716 5718 5720 5723 5725 5728 5730 5732 5734 5737 5738 5740 5742 5745 5747 5750 5752 5756 5756 5755 5755 5755 5756 5756
5715 5713 5711 5709 5708 5706 5705 5703 5702 5700 5699 5699 5700 5702 5704 5705 5707 5708 5710 5712 5714 5716 5719 5721 5724 5726 5728 5731 5733 5735 5737 5739 5741 5744 5746 5748 5750 5750 5751 5752 5752 5753 5753
5713 5711 5709 5707 5705 5704 5702 5700 5698 5696 5695 5695 5696 5698 5699 5701 5703 5705 5706 5708 5710 5712 5715 5718 5720 5722 5725 5727 5730 5732 5734 5735 5737 5740 5742 5743 5744 5746 5747 5748 5749 5750 5751
5710 5709 5707 5705 5703 5701 5699 5697 5694 5693 5692 5691 5693 5693 5694 5696 5698 5700 5702 5704 5706 5709 5711 5714 5716 5719 5721 5723 5726 5728 5730 5732 5734 5736 5738 5739 5740 5742 5743 5745 5746 5747 5748
5708 5707 5705 5703 5700 5698 5696 5694 5692 5690 5688 5688 5687 5686 5689 5692 5693 5695 5697 5700 5702 5705 5708 5710 5712 5714 5717 5719 5722 5725 5727 5729 5731 5733 5735 5736 5737 5739 5740 5742 5743 5744 5745
5706 5705 5703 5700 5698 5696 5694 5692 5689 5686 5684 5684 5682 5679 5678 5681 5686 5690 5692 5695 5697 5701 5703 5706 5709 5711 5713 5715 5718 5721 5723 5725 5727 5729 5731 5733 5735 5736 5738 5739 5740 5742 5743
5705 5703 5701 5699 5696 5694 5692 5690 5688 5685 5681 5681 5680 5677 5673 5671 5675 5683 5687 5690 5693 5696 5699 5702 5705 5707 5709 5711 5714 5717 5719 5722 5724 5725 5728 5730 5732 5733 5735 5736 5738 5740 5741
5703 5702 5700 5698 5695 5693 5691 5689 5687 5685 5682 5679 5678 5677 5676 5674 5672 5673 5681 5685 5689 5692 5694 5698 5700 5703 5705 5708 5710 5713 5716 5718 5720 5722 5724 5726 5728 5730 5732 5734 5735 5738 5739
5701 5700 5698 5697 5695 5693 5691 5689 5687 5685 5682 5679 5677 5676 5675 5673 5673 5671 5672 5678 5683 5687 5690 5693 5696 5699 5702 5704 5707 5709 5712 5714 5717 5719 5721 5723 5724 5726 5728 5730 5731 5734 5735
5699 5698 5697 5695 5694 5692 5690 5688 5687 5685 5682 5680 5678 5677 5675 5673 5672 5671 5671 5673 5676 5681 5686 5690 5693 5695 5698 5700 5703 5705 5708 5710 5712 5715 5717 5718 5720 5722 5724 5726 5728 5729 5731
5696 5696 5695 5694 5693 5691 5690 5688 5686 5684 5682 5680 5679 5677 5676 5676 5675 5673 5672 5671 5672 5676 5681 5686 5689 5692 5695 5697 5699 5701 5704 5706 5708 5710 5712 5714 5716 5718 5720 5722 5724 5726 5727
5695 5695 5694 5693 5692 5691 5689 5687 5685 5683 5682 5680 5679 5678 5677 5676 5676 5675 5673 5671 5670 5672 5675 5680 5685 5688 5691 5693 5696 5698 5699 5701 5703 5705 5707 5710 5712 5714 5716 5718 5719 5721 5723
5695 5694 5693 5692 5691 5690 5688 5686 5684 5682 5681 5680 5678 5677 5676 5676 5676 5675 5674 5673 5670 5668 5671 5676 5680 5685 5687 5690 5692 5694 5696 5697 5699 5701 5703 5705 5707 5710 5712 5713 5715 5717 5718
5694 5693 5692 5691 5690 5688 5687 5685 5683 5681 5680 5678 5677 5676 5676 5675 5675 5675 5674 5673 5672 5670 5669 5673 5676 5680 5683 5686 5688 5690 5692 5694 5696 5698 5700 5701 5703 5705 5707 5709 5710 5712 5713
5692 5691 5690 5689 5688 5686 5685 5683 5681 5680 5678 5677 5676 5675 5675 5675 5674 5673 5673 5672 5671 5670 5669 5671 5674 5677 5679 5681 5684 5686 5688 5689 5692 5694 5695 5697 5699 5701 5702 5704 5705 5706 5708
5690 5689 5688 5687 5686 5684 5683 5681 5679 5678 5676 5675 5674 5674 5673 5673 5672 5672 5671 5670 5670 5670 5668 5668 5671 5673 5675 5677 5679 5681 5683 5685 5687 5689 5691 5692 5694 5696 5697 5699 5700 5702 5703
5687 5686 5685 5684 5683 5682 5680 5679 5677 5676 5674 5673 5672 5672 5671 5671 5670 5669 5669 5668 5668 5668 5667 5666 5667 5668 5670 5672 5674 5676 5678 5680 5682 5684 5686 5688 5689 5691 5692 5694 5695 5696 5698
5684 5682 5681 5681 5680 5678 5677 5676 5675 5673 5672 5671 5670 5669 5669 5668 5667 5667 5667 5666 5665 5664 5663 5662 5663 5664 5665 5667 5667 5669 5671 5673 5676 5678 5680 5682 5683 5685 5687 5689 5690 5691 5693
5680 5678 5677 5676 5676 5675 5674 5673 5672 5670 5668 5667 5667 5666 5666 5666 5666 5665 5664 5662 5662 5660 5659 5658 5658 5659 5660 5660 5661 5663 5664 5666 5669 5671 5673 5675 5677 5679 5680 5682 5684 5685 5687
5674 5673 5672 5671 5670 5670 5670 5670 5668 5666 5664 5663 5662 5661 5662 5661 5662 5662 5661 5661 5659 5657 5656 5655 5654 5654 5656 5656 5657 5657 5657 5658 5660 5664 5665 5667 5670 5672 5674 5676 5678 5680 5681
5668 5667 5666 5665 5664 5664 5665 5665 5664 5661 5659 5657 5656 5655 5656 5656 5656 5655 5655 5656 5655 5655 5655 5653 5651 5652 5652 5653 5652 5652 5652 5652 5654 5657 5657 5660 5662 5664 5667 5670 5672 5673 5675
5662 5661 5660 5659 5658 5659 5659 5659 5658 5655 5653 5652 5650 5649 5648 5648 5649 5648 5648 5648 5648 5649 5649 5649 5649 5650 5650 5650 5649 5649 5649 5648 5650 5651 5652 5653 5655 5657 5661 5663 5665 5666 5668
5655 5653 5653 5652 5651 5651 5652 5652 5651 5648 5646 5646 5645 5644 5642 5642 5643 5642 5641 5640 5641 5643 5644 5645 5645 5646 5646 5646 5645 5643 5642 5642 5643 5645 5646 5647 5650 5651 5653 5656 5659 5660 5661
5647 5646 5645 5644 5643 5643 5644 5644 5643 5640 5639 5638 5638 5637 5637 5636 5636 5635 5633 5632 5633 5635 5636 5638 5639 5640 5640 5640 5640 5638 5638 5636 5636 5638 5641 5640 5642 5642 5645 5649 5651 5652 5653